User: anonymous
Location: Cutler
(25.6150°N, 80.3110°W)
Time: 20:21:05
(UTC-04:00)
Language:

Cosmos 2360 Rocket - Orbit

View from above orbital plane
View from above orbital plane
View from above satellite
View from above satellite

Ground track
Ground track

The orbit data is extracted from the following two-line orbital elements,

1 25407U 98045B   14274.49182206  .00000336  00000-0  19539-3 0  5824
2 25407 071.0119 321.1142 0010021 275.5610 182.6684 14.15667200836119
Epoch (UTC): 01 October 2014 11:48:13
Eccentricity: 0.0010021
inclination: 71.0119°
perigee height: 833 km
apogee height: 847 km
right ascension of ascending node: 321.1142°
argument of perigee: 275.5610°
revolutions per day: 14.15667200
mean anomaly at epoch: 182.6684°
orbit number at epoch: 83611

The dashed part of the orbit path shows where the satellite is in the earth's shadow,  

DLR